Regional Weather Roundup
Issued by NWS Upton, NY

Current Version | Previous Version | Graphics & Text | Print | Product List | Glossary Off
Versions: 1 2 3 4 5 6 7 8 9 10 11 12 13 14 15 16 17 18 19 20 21 22 23 24 25 26 27 28 29 30 31 32 33 34 35 36 37 38 39 40 41 42 43 44 45 46 47 48 49 50
883 ASUS41 KOKX 261904 RWROKX REGIONAL WEATHER ROUNDUP NATIONAL WEATHER SERVICE NEW YORK NY 300 PM EDT TUE JUL 26 2016 NOTE: "FAIR" INDICATES FEW OR NO CLOUDS BELOW 12,000 FEET WITH NO SIGNIFICANT WEATHER AND/OR OBSTRUCTIONS TO VISIBILITY. NYZ071-072-176-178-NJZ106-104-262000- NEW YORK CITY METRO AREA CITY SKY/WX TMP DP RH WIND PRES REMARKS Central Park PTSUNNY 88 65 46 VRB7 29.91R HX 90 LaGuardia APRT PTSUNNY 89 65 44 NW10 29.86S HX 91 Kennedy INTL PTSUNNY 93 63 36 W15G21 29.87F HX 94 Newark/Liberty PTSUNNY 91 64 40 W17G25 29.86F HX 92 Bronx Bot Gard N/A 88 63 42 NW9 29.89S Wall St Helipt PTCLDY 91 64 40 N6 29.88S HX 93 Teterboro PTSUNNY 91 62 37 VRB6G22 29.86S HX 91 $$ NYZ177-179-078>081-262000- LONG ISLAND NEW YORK CITY SKY/WX TMP DP RH WIND PRES REMARKS Farmingdale MOSUNNY 91 63 39 NW10G20 29.87S HX 92 MacArthur/ISP PTSUNNY 91 63 39 NW15G23 29.86S HX 92 Shirley SUNNY 90 64 42 W16G23 29.86F HX 91 Riverhead NOT AVBL Westhampton MOSUNNY 90 62 39 W17 29.87S HX 90 Southhampton N/A 90 68 48 NW12 29.81F HX 93 Bridgehampton N/A 90 70 51 N3 29.84S HX 95 East Hampton FAIR 87 65 47 W12G18 29.84S Montauk N/A 86 68 54 SW9G17 29.84F $$ NYZ052-065-067-262000- HUDSON VALLEY CITY SKY/WX TMP DP RH WIND PRES REMARKS White Plains MOSUNNY 88 61 40 NW16G22 29.88S Newburgh NOT AVBL Montgomery MOSUNNY 88 63 43 NW10 29.89F Poughkeepsie SUNNY 90 61 37 N12 29.87S HX 90 Albany MOSUNNY 87 62 43 NW15G22 29.88F $$ NJZ001-105-106-008-010-013-015-019>022-104-262000- NEW JERSEY CITY SKY/WX TMP DP RH WIND PRES REMARKS Newark/Liberty PTSUNNY 91 64 40 W17G25 29.86F HX 92 Teterboro PTSUNNY 91 62 37 VRB6G22 29.86S HX 91 Caldwell MOSUNNY 90 63 40 N10 29.88F HX 91 Morristown NOT AVBL Somerville MOSUNNY 88 67 49 VRB7 29.88S HX 91 Linden FAIR 89 64 42 NW13 29.89F HX 90 Sussex MOSUNNY 87 65 47 NW9 29.92S Abdover N/A 87 64 46 N8 29.92S Trenton MOSUNNY 89 67 47 W8 29.90S HX 92 Millville CLOUDY 91 68 46 W12 29.92F HX 95 Atlantic City PTSUNNY 90 67 46 W9 29.91F HX 93 Wrightstown MOSUNNY 91 67 44 W13G18 29.87F HX 94 Toms River MOSUNNY 91 67 44 NW15 29.90F HX 94 Belmar SUNNY 90 66 45 W14G20 29.91S HX 92 $$ PAZ047>061-062-071-262000- EASTERN PENNSYLVANIA CITY SKY/WX TMP DP RH WIND PRES REMARKS Philadelphia PTSUNNY 91 67 44 NW15G21 29.91F HX 94 Allentown MOSUNNY 87 65 47 W13G18 29.92F Scranton SUNNY 89 59 36 N13 29.95S $$ CTZ002-004>006-009-010-012-RIZ004-006-007-MAZ004-011-015-262000- SOUTHERN NEW ENGLAND IN CT CITY SKY/WX TMP DP RH WIND PRES REMARKS Bradley INTL MOSUNNY 90 59 35 N13 29.83F Hartford MOSUNNY 94 60 32 W8G26 29.83S HX 94 Danbury PTSUNNY 86 62 44 NW7 29.89S Wtrbury/Oxford MOSUNNY 84 63 48 NW10G17 29.91F Bridgeport MOSUNNY 90 65 43 NW9G18 29.85S HX 92 Meriden PTSUNNY 91 60 35 NW8G20 29.84F HX 90 New Haven MOSUNNY 87 64 46 NW8 29.84F Chester FAIR 88 63 42 VRB7G17 29.85S Groton MOSUNNY 86 69 56 SW18G24 29.81F HX 90 Wilimantic NOT AVBL IN RI CITY SKY/WX TMP DP RH WIND PRES REMARKS Providence MOSUNNY 91 61 36 W15G21 29.80F HX 91 Block Island SUNNY 83 69 62 SW17 29.83F Westerly SUNNY 85 66 53 SW12G24 29.83S IN MA CITY SKY/WX TMP DP RH WIND PRES REMARKS Boston MOSUNNY 93 57 29 NW16 29.77S HX 91 Worchester MOSUNNY 86 57 37 NW12G23 29.86S Westfield MOSUNNY 90 59 35 NW16G25 29.84S Provincetown SUNNY 87 63 44 N7 29.79S Nantucket SUNNY 81 68 64 W18G25 29.81S $$ ANZ330-335-338-340-345-350-353-355-262000- COASTAL MARINE OBSERVATIONS STATION/POSITION TIME SKY/WX TEMP WIND PRES VSBY WAVE AIR SEA DIR/SP/G HT/PER (UTC) (F) (DEG/KT/KT) (MB) (MI) (FT/S) NY HARB ENTRANCE 1750 80 74 260/ 8/ 10 1011.6 2/ 6 20S FIRE ISLAND 1750 77 75 260/ 8/ 10 1011.5 3/ 7 GREAT SOUTH BAY 1800 85 82 310/ 12/ 16 N/A 23 SSW MONTAUK P 1750 74 70 240/ 10/ 12 1011.3 2/ 6 15 E BARNEGAT LI 1822 79 N/A 3/ 7 HUDSON CANYON 1750 77 78 1012.4 4/ 7 KINGS POINT 1800 83 73 1011.4 EXECUTION ROCKS 1800 83 310/ 8/ 12 N/A CENTRAL LI SOUND 1800 78 74 250/ 12/ 14 N/A 1/ 3 EASTERN LI SOUND 1800 74 69 250/ 12/ 16 N/A ROBBINS REEF 1800 86 320/ 11/ 15 1011.0 $$ >>>>>>>>>>>>>>>>>>>>>>>>>>>> KEY <<<<<<<<<<<<<<<<<<<<<<<<<<< > < > SKY/WX - Sky Condition/Present Weather < > TMP - Temperature in Fahrenheit < > DP - Dew Point in Fahrenheit < > RH - Relative Humidity in Percent < > WIND - Direction (from) and Speed in MPH < > PRES - Mean Sea Level Pressure (inches of Hg) < > WCI - Wind Chill Index < > VSB - VISIBILITY IN MILES < > HX - HEAT INDEX < > TC - TEMPERATURE IN CELSIUS < > VRB - VARIABLE WIND DIRECTION < > < >>>>>>>>>>>>>>>>>>>>>>>>>>>> KEY <<<<<<<<<<<<<<<<<<<<<<<<<<<

USA.gov is the U.S. government's official web portal to all federal, state and local government web resources and services.